Theta_e
318 315 311 308 308 309 308 308 308 308 307 307 307 307 307 307 307 307 307 307 307 307 307 307 307 307 307 307 307 306 306 306 306 306 305 305 304 304 304 305 305 305
320 319 316 309 308 308 308 309 309 309 309 308 308 308 307 308 308 308 308 307 308 308 308 308 308 308 307 308 307 307 307 306 306 306 306 305 305 305 304 304 304 303
320 321 319 312 309 309 309 310 311 311 313 312 311 310 309 308 308 308 308 308 308 308 308 308 308 308 308 308 308 308 308 307 307 307 306 306 306 305 305 304 304 304
320 321 319 315 313 312 311 312 313 314 315 315 314 314 312 311 310 310 309 309 309 308 308 308 308 308 308 308 308 308 308 308 308 308 307 307 307 307 306 305 305 305
320 322 320 317 316 315 313 315 316 316 316 315 315 314 314 312 311 311 310 310 310 310 310 310 310 310 309 309 309 308 308 308 308 308 308 308 307 307 307 307 306 306
320 321 319 318 318 317 315 317 317 318 318 317 316 315 314 314 313 313 313 312 312 311 311 311 311 312 312 312 311 310 310 309 309 309 309 309 308 308 308 307 307 306
320 320 319 319 320 319 318 318 318 319 319 318 317 316 316 316 316 316 316 316 315 314 313 313 313 313 313 313 313 313 313 313 311 310 310 310 310 309 309 309 308 307
320 320 320 319 320 320 319 319 318 318 319 319 318 318 318 318 318 318 318 318 318 317 316 316 317 316 316 316 316 315 316 316 315 314 312 311 311 310 310 310 310 309
321 320 320 320 320 319 319 320 318 318 319 319 319 319 318 318 318 319 319 319 318 318 318 318 318 318 318 318 318 317 317 317 318 317 315 314 313 312 312 311 311 311
321 320 320 320 319 318 320 320 319 318 318 319 319 319 318 319 319 319 319 319 319 318 318 319 319 319 319 319 319 319 318 318 318 318 317 316 315 314 314 313 312 312
322 321 321 320 319 319 320 319 317 317 318 319 320 319 319 319 319 318 318 318 319 319 319 319 320 319 319 319 319 319 319 319 319 319 318 318 317 317 316 315 314 313
322 322 321 321 321 321 321 318 315 316 319 320 320 319 319 319 319 318 318 318 319 319 319 319 320 319 319 319 319 320 320 320 320 319 319 318 318 317 317 317 316 314
321 321 319 319 319 319 320 319 318 317 318 319 319 318 319 319 318 318 318 319 319 319 319 319 319 319 319 319 319 320 320 320 320 319 319 318 318 317 317 317 316 315
321 321 320 320 320 320 320 321 321 319 319 319 319 319 319 319 318 318 318 319 319 318 318 318 318 319 319 319 319 319 319 319 319 319 319 318 318 317 317 316 316 316
318 318 318 317 317 318 319 320 320 319 319 318 318 318 318 319 319 319 319 319 319 318 318 318 319 319 318 318 318 319 319 319 319 319 319 319 318 317 317 316 316 316
314 314 313 311 312 313 314 316 317 317 316 316 316 317 317 317 317 317 317 318 319 319 319 319 319 318 318 318 318 319 319 319 319 319 319 319 318 318 317 316 316 315
312 312 311 310 312 313 313 313 314 314 313 313 314 315 315 316 317 317 317 317 316 317 317 318 319 319 319 319 320 320 321 321 320 319 319 319 318 318 318 317 316 315
309 310 310 310 311 312 311 312 312 312 312 312 313 313 313 315 316 317 317 318 317 317 316 316 316 317 319 321 322 322 321 321 321 320 319 319 318 318 318 317 316 315
309 309 309 310 310 310 309 310 310 310 310 311 311 311 312 312 313 314 315 316 317 318 317 315 313 313 315 316 318 319 319 320 320 320 320 319 318 317 317 317 316 315
308 309 309 309 309 309 309 309 309 309 309 310 310 310 310 311 312 312 313 314 315 316 317 316 314 312 312 312 312 313 315 317 318 319 319 319 318 317 316 316 315 314
307 307 307 307 307 307 307 308 308 308 308 307 308 309 309 309 309 310 311 312 313 314 315 315 315 313 312 312 312 313 313 314 315 316 317 318 318 317 316 315 314 313
307 307 307 308 308 308 307 307 306 306 306 305 305 306 306 306 306 307 307 308 311 312 313 315 315 315 314 314 314 313 313 313 314 315 316 316 316 316 315 314 313 312
307 308 308 308 308 308 308 307 307 307 307 307 306 307 306 305 304 303 303 304 306 310 312 313 314 315 314 314 314 314 313 313 314 315 315 315 314 314 313 313 312 311
306 307 307 308 307 308 308 308 308 309 309 309 309 309 309 307 305 304 304 304 304 308 311 312 313 313 314 314 314 313 313 312 313 313 313 313 313 313 312 312 312 311
305 306 307 307 307 307 307 307 307 308 308 308 308 308 308 307 306 305 305 305 307 309 311 311 312 312 313 313 313 313 312 311 311 311 311 311 312 312 312 311 311 310
305 306 306 306 306 307 307 307 307 307 307 307 307 307 307 306 306 305 306 307 309 310 311 311 312 312 312 312 313 312 311 310 310 310 310 310 310 311 311 311 310 309
Wind_Speed
17 16 16 17 16 14 15 15 14 13 13 14 14 14 14 14 13 12 11 11 9 8 8 9 10 9 9 9 8 8 7 7 7 6 5 5 5 4 3 2 1 2
20 17 15 17 17 15 15 15 15 14 13 13 12 12 13 13 13 12 11 11 10 8 7 7 8 8 8 8 7 7 7 6 7 6 6 6 6 6 6 4 4 4
22 19 16 17 17 16 16 15 14 14 12 12 12 11 11 11 11 11 10 9 8 7 6 5 5 5 6 6 5 5 5 5 5 5 6 6 7 7 7 6 6 5
23 19 16 16 15 15 15 14 13 12 11 10 9 9 9 9 9 9 9 8 7 6 5 4 3 2 2 2 3 3 3 4 4 3 4 4 5 6 6 6 5 6
21 19 16 14 13 13 15 14 12 11 10 10 8 7 7 6 6 7 7 7 6 6 5 4 3 2 1 1 0 0 1 2 2 2 3 3 2 3 4 4 4 4
19 18 16 16 15 14 14 14 13 12 11 11 10 9 8 7 5 5 5 5 5 5 5 4 3 2 2 2 2 2 3 2 3 2 2 2 2 2 2 2 2 1
20 19 18 18 17 15 14 13 14 14 13 13 12 11 10 8 7 5 3 3 3 4 4 4 3 3 2 3 3 4 4 4 5 5 5 4 4 3 2 2 2 3
22 22 20 19 19 18 15 15 16 15 15 14 12 12 12 10 7 6 4 5 5 4 4 4 3 3 3 4 4 5 5 5 6 7 7 7 7 5 4 4 4 4
24 23 21 20 21 20 18 19 20 17 16 15 15 15 15 13 10 8 6 7 8 8 8 7 6 5 5 6 6 6 7 6 6 7 7 8 9 8 7 7 7 6
24 23 22 22 22 21 20 21 21 19 18 18 19 19 18 16 13 11 10 10 11 11 11 10 9 8 8 8 8 8 8 8 7 7 7 7 8 8 9 9 9 9
24 24 25 24 23 23 23 21 20 21 23 23 22 21 20 19 15 13 14 15 14 14 14 13 12 12 12 12 11 11 11 11 10 10 9 9 8 9 10 10 10 10
24 23 22 23 22 22 22 20 19 22 25 24 23 21 19 20 18 17 17 18 17 15 15 15 15 15 15 15 14 15 15 15 14 14 14 13 12 11 11 11 11 11
20 18 17 19 19 19 21 21 21 22 24 24 22 19 18 19 20 19 19 20 19 17 17 17 17 17 17 18 18 18 18 18 17 17 17 16 15 15 14 14 13 13
16 15 15 16 17 17 20 23 22 21 23 24 24 23 23 22 21 20 20 21 21 21 21 22 22 22 22 22 22 21 20 20 20 20 19 19 18 18 18 18 17 16
11 12 11 10 10 12 14 17 17 16 16 17 18 19 19 19 19 18 19 20 20 21 20 21 23 25 25 25 25 24 23 22 22 22 21 20 20 20 20 21 21 19
8 7 6 4 3 4 5 6 7 7 7 7 7 8 8 9 10 10 10 11 12 13 15 16 18 20 21 22 22 22 22 22 22 23 22 21 20 21 23 24 24 23
7 6 5 3 3 3 4 4 5 5 5 4 5 5 6 7 8 8 7 6 6 7 9 11 13 15 17 18 19 20 20 20 21 22 22 22 22 22 23 25 26 25
7 6 6 5 5 5 4 4 4 4 4 5 5 6 7 7 8 9 8 7 7 7 8 9 11 12 14 15 16 17 17 18 20 21 22 23 25 25 24 24 26 27
8 7 7 7 7 6 5 5 5 5 5 5 6 7 8 8 8 9 8 8 7 7 9 11 12 13 13 13 14 14 15 17 18 18 19 20 21 23 23 23 25 27
8 9 9 10 10 10 10 10 9 8 8 9 9 9 9 9 9 10 10 10 10 9 10 12 12 13 13 14 14 14 14 14 15 16 18 19 19 18 20 23 26 27
5 6 7 8 9 10 11 11 11 11 10 10 11 12 12 12 12 12 12 13 13 11 11 12 12 13 13 14 14 15 14 14 14 14 15 17 16 14 17 23 27 27
5 5 6 6 6 7 8 8 9 9 9 9 9 10 11 12 13 13 13 14 14 13 12 13 13 14 14 14 14 15 16 15 13 11 10 10 10 11 15 23 27 26
6 6 7 7 7 8 9 10 11 11 10 10 10 10 10 11 12 12 12 13 13 13 13 13 14 14 15 15 15 16 16 14 10 7 6 7 9 11 15 20 23 23
8 8 9 9 10 11 11 12 12 12 12 12 12 12 13 15 15 15 14 14 13 13 13 13 14 15 15 15 15 15 14 11 8 6 6 8 11 13 15 17 20 22
11 12 12 13 13 14 14 14 14 15 15 16 16 17 17 18 18 18 17 16 15 14 14 14 14 15 15 15 14 13 12 10 8 7 8 9 12 15 16 17 19 21
12 13 14 15 15 15 16 16 16 17 18 18 18 18 18 17 18 18 18 17 15 15 15 15 14 14 14 13 12 11 10 9 8 9 10 12 14 16 17 18 19 20
Wind_Direction
205 199 192 185 177 169 163 162 161 153 144 140 135 131 128 126 127 129 128 124 119 111 101 97 100 102 98 91 87 82 79 79 82 82 83 87 88 94 108 121 134 132
211 209 203 191 184 181 176 172 168 162 155 151 146 141 137 132 131 131 129 125 122 119 110 101 100 100 100 97 91 88 84 78 76 75 76 78 77 86 94 92 96 104
214 213 208 195 188 190 188 183 178 172 167 164 160 154 149 143 139 137 136 133 131 131 127 116 104 98 98 101 101 102 100 95 88 79 75 73 73 80 85 86 88 92
214 216 213 201 194 197 196 192 187 183 184 183 175 168 163 155 150 147 143 140 139 141 141 139 130 114 104 106 113 119 123 122 122 115 101 85 79 83 84 85 86 90
212 216 214 204 201 205 202 197 195 195 199 202 199 195 191 179 167 161 155 150 147 147 151 156 159 160 190 274 298 182 181 153 161 160 135 121 118 105 94 92 89 90
211 211 210 206 207 209 206 203 205 207 209 214 217 214 213 212 206 193 177 171 167 166 171 176 188 199 221 262 278 281 278 270 262 250 206 185 196 190 144 120 122 136
207 205 205 208 210 207 207 210 212 215 219 222 225 224 222 220 220 222 221 219 204 192 197 201 208 223 239 258 269 274 279 280 276 272 263 251 239 229 219 214 221 226
207 204 205 210 212 208 211 216 217 220 221 224 234 235 229 222 216 223 240 257 267 262 252 247 242 250 264 271 273 273 279 285 283 277 272 266 262 255 248 252 256 254
205 205 205 205 208 210 212 211 212 214 214 223 238 238 233 228 223 225 236 247 263 273 274 270 265 265 270 274 275 275 281 288 286 280 274 269 269 268 265 266 270 277
202 204 205 204 209 213 211 207 208 213 220 229 234 231 228 226 223 228 233 236 249 261 263 263 261 263 267 269 271 273 276 279 277 275 277 280 283 281 278 277 275 277
200 204 206 207 211 213 214 215 217 221 227 231 229 226 222 217 223 243 243 239 247 253 255 254 254 258 262 264 266 266 266 268 268 268 272 279 285 288 287 287 283 275
204 208 212 213 217 219 222 229 232 230 233 234 229 228 225 223 240 260 253 244 247 248 249 250 251 255 260 262 262 261 259 259 262 265 266 267 270 273 275 279 280 274
209 214 224 228 232 233 232 237 240 237 240 243 240 239 240 242 254 261 254 248 247 246 246 249 251 255 259 261 262 262 259 255 255 260 260 260 264 266 265 266 267 266
214 219 231 238 241 241 241 243 246 244 245 250 253 253 255 258 261 258 253 249 248 249 250 250 250 252 256 260 262 263 262 257 256 260 259 257 258 260 260 260 260 261
204 214 222 228 233 237 241 244 246 245 244 248 252 253 254 258 259 257 254 253 252 254 253 252 252 253 256 259 260 260 261 261 261 263 262 259 255 255 255 256 256 256
181 188 191 191 199 208 218 224 224 225 227 231 238 247 251 254 257 261 262 261 260 259 259 259 258 257 257 258 258 258 259 260 262 263 264 261 257 254 252 251 251 253
184 185 195 211 206 201 207 212 209 210 219 229 235 244 251 256 261 265 271 281 287 286 281 275 267 261 258 257 256 258 258 259 260 260 261 260 258 255 252 249 248 249
192 193 198 204 202 204 213 214 214 218 226 236 243 249 255 260 261 261 264 273 287 299 301 295 282 269 262 258 257 258 259 259 260 260 259 259 258 257 255 250 245 244
205 206 209 215 216 219 226 229 232 240 248 256 262 265 268 273 273 270 267 267 275 288 292 289 285 279 274 273 270 268 266 264 265 265 264 263 263 261 256 247 241 240
213 219 225 231 234 237 242 245 247 252 260 267 269 273 276 278 279 277 272 268 267 271 275 280 285 288 288 285 281 280 278 273 271 272 271 270 271 265 248 237 235 237
228 235 237 238 240 244 247 250 252 255 259 263 265 267 270 273 276 277 274 271 269 268 273 280 287 293 295 291 286 285 287 287 285 281 276 273 275 268 243 231 231 233
243 241 242 244 245 250 259 265 266 265 265 266 265 265 268 273 276 276 275 273 271 272 278 284 288 292 295 296 295 294 296 299 298 294 290 282 274 262 241 229 227 228
246 245 248 251 251 256 265 272 274 274 274 276 277 277 282 286 286 285 283 279 274 274 280 285 286 288 291 295 298 300 302 306 306 304 299 277 251 240 235 231 230 231
260 261 263 263 263 261 261 263 265 266 268 273 275 277 282 288 290 290 289 287 286 285 286 288 288 288 289 291 293 296 299 302 301 289 270 254 244 241 242 244 243 243
266 267 267 268 269 266 265 265 266 267 268 269 271 272 276 280 283 285 287 288 289 288 289 291 291 290 289 289 289 290 290 291 285 273 265 260 254 250 251 253 252 250
267 271 271 272 272 271 271 271 272 272 272 273 273 273 274 276 279 282 285 288 289 289 290 290 289 288 287 286 285 284 284 281 270 263 264 262 255 250 252 256 256 255